Time,TemperatureF,DewpointF,PressureIn,WindDirection,WindDirectionDegrees,WindSpeedMPH,WindSpeedGustMPH,Humidity,HourlyPrecipIn,Conditions,Clouds,dailyrainin,SolarRadiationWatts/m^2,SoftwareType,DateUTC
2013-05-20 00:03:00,67.0,67.0,-100.00,SSW,198,1.0,3.0,100,0.00,,,0.58,0.000000,,2013-05-20 04:03:00,
2013-05-20 00:33:00,67.0,67.0,-100.00,SE,143,1.0,3.0,100,0.01,,,0.59,0.000000,,2013-05-20 04:33:00,
2013-05-20 00:43:00,67.0,67.0,-100.00,SE,143,1.0,3.0,100,0.01,,,0.59,0.000000,,2013-05-20 04:43:00,
2013-05-20 00:53:00,67.0,67.0,-100.00,SE,143,1.0,3.0,100,0.01,,,0.59,0.000000,,2013-05-20 04:53:00,
2013-05-20 01:02:00,67.0,67.0,-100.00,SE,143,1.0,3.0,100,0.01,,,0.59,0.000000,,2013-05-20 05:02:00,
2013-05-20 01:32:00,66.0,66.0,-100.00,SSE,162,4.0,7.0,100,0.00,,,0.59,0.000000,,2013-05-20 05:32:00,
2013-05-20 01:42:00,66.0,66.0,-100.00,SSE,162,4.0,7.0,100,0.00,,,0.59,0.000000,,2013-05-20 05:42:00,
2013-05-20 01:52:00,66.0,66.0,-100.00,SSE,162,4.0,7.0,100,0.00,,,0.59,0.000000,,2013-05-20 05:52:00,
2013-05-20 02:01:00,66.0,66.0,-100.00,SSE,162,4.0,7.0,100,0.00,,,0.59,0.000000,,2013-05-20 06:01:00,
2013-05-20 02:32:00,66.0,66.0,-100.00,South,183,3.0,7.0,100,0.00,,,0.57,0.000000,,2013-05-20 06:32:00,
2013-05-20 02:42:00,66.0,66.0,-100.00,South,183,3.0,7.0,100,0.00,,,0.57,0.000000,,2013-05-20 06:42:00,
2013-05-20 02:52:00,66.0,66.0,-100.00,South,183,3.0,7.0,100,0.00,,,0.57,0.000000,,2013-05-20 06:52:00,
2013-05-20 03:02:00,66.0,66.0,-100.00,South,183,3.0,7.0,100,0.00,,,0.57,0.000000,,2013-05-20 07:02:00,
2013-05-20 03:32:00,66.0,66.0,-100.00,South,170,3.0,4.0,100,0.00,,,0.56,0.000000,,2013-05-20 07:32:00,
2013-05-20 03:42:00,66.0,66.0,-100.00,South,170,3.0,4.0,100,0.00,,,0.56,0.000000,,2013-05-20 07:42:00,
2013-05-20 03:52:00,66.0,66.0,-100.00,South,170,3.0,4.0,100,0.00,,,0.56,0.000000,,2013-05-20 07:52:00,
2013-05-20 04:01:00,66.0,66.0,-100.00,South,170,3.0,4.0,100,0.00,,,0.56,0.000000,,2013-05-20 08:01:00,
2013-05-20 04:32:00,66.0,66.0,-100.00,SSW,207,3.0,6.0,100,0.00,,,0.56,0.000000,,2013-05-20 08:32:00,
2013-05-20 04:42:00,66.0,66.0,-100.00,SSW,207,3.0,6.0,100,0.00,,,0.56,0.000000,,2013-05-20 08:42:00,
2013-05-20 04:52:00,66.0,66.0,-100.00,SSW,207,3.0,6.0,100,0.00,,,0.56,0.000000,,2013-05-20 08:52:00,
2013-05-20 05:02:00,66.0,66.0,-100.00,SSW,207,3.0,6.0,100,0.00,,,0.56,0.000000,,2013-05-20 09:02:00,
2013-05-20 05:33:00,66.0,66.0,-100.00,WSW,243,1.0,4.0,100,0.00,,,0.56,0.000000,,2013-05-20 09:33:00,
2013-05-20 05:43:00,66.0,66.0,-100.00,WSW,243,1.0,4.0,100,0.00,,,0.56,0.000000,,2013-05-20 09:43:00,
2013-05-20 05:53:00,66.0,66.0,-100.00,WSW,243,1.0,4.0,100,0.00,,,0.56,0.000000,,2013-05-20 09:53:00,
2013-05-20 06:03:00,66.0,66.0,-100.00,WSW,243,1.0,4.0,100,0.00,,,0.56,0.000000,,2013-05-20 10:03:00,
2013-05-20 06:22:00,66.0,66.0,-100.00,SW,217,2.0,4.0,100,0.00,,,-99.99,0.000000,,2013-05-20 10:22:00,
2013-05-20 06:33:00,66.0,66.0,-100.00,SW,217,2.0,4.0,100,0.00,,,-99.99,0.000000,,2013-05-20 10:33:00,
2013-05-20 06:42:00,66.0,66.0,-100.00,SW,217,2.0,4.0,100,0.00,,,-99.99,0.000000,,2013-05-20 10:42:00,
2013-05-20 06:52:00,66.0,66.0,-100.00,SW,217,2.0,4.0,100,0.00,,,-99.99,0.000000,,2013-05-20 10:52:00,
2013-05-20 07:02:00,66.0,66.0,-100.00,SW,217,2.0,4.0,100,0.00,,,-99.99,0.000000,,2013-05-20 11:02:00,
2013-05-20 07:32:00,66.0,66.0,-100.00,South,189,3.0,4.0,100,0.00,,,0.56,9.000000,,2013-05-20 11:32:00,
2013-05-20 07:42:00,66.0,66.0,-100.00,South,189,3.0,4.0,100,0.00,,,0.56,9.000000,,2013-05-20 11:42:00,
2013-05-20 07:52:00,66.0,66.0,-100.00,South,189,3.0,4.0,100,0.00,,,0.56,9.000000,,2013-05-20 11:52:00,
2013-05-20 08:01:00,66.0,66.0,-100.00,South,189,3.0,4.0,100,0.00,,,0.56,9.000000,,2013-05-20 12:01:00,
2013-05-20 08:32:00,67.0,67.0,-100.00,WNW,288,2.0,5.0,100,0.00,,,0.56,57.000000,,2013-05-20 12:32:00,
2013-05-20 08:42:00,67.0,67.0,-100.00,WNW,288,2.0,5.0,100,0.00,,,0.56,57.000000,,2013-05-20 12:42:00,
2013-05-20 08:52:00,67.0,67.0,-100.00,WNW,288,2.0,5.0,100,0.00,,,0.56,57.000000,,2013-05-20 12:52:00,
2013-05-20 09:01:00,67.0,67.0,-100.00,WNW,288,2.0,5.0,100,0.00,,,0.56,57.000000,,2013-05-20 13:01:00,
2013-05-20 10:32:00,70.0,68.0,-100.00,South,178,2.0,5.0,94,-99.99,,,0.56,201.000000,,2013-05-20 14:32:00,
2013-05-20 10:42:00,70.0,68.0,-100.00,South,178,2.0,5.0,94,-99.99,,,0.56,201.000000,,2013-05-20 14:42:00,
2013-05-20 10:52:00,70.0,68.0,-100.00,South,178,2.0,5.0,94,-99.99,,,0.56,201.000000,,2013-05-20 14:52:00,
2013-05-20 11:01:00,70.0,68.0,-100.00,South,178,2.0,5.0,94,-99.99,,,0.56,201.000000,,2013-05-20 15:01:00,
2013-05-20 11:33:00,72.0,67.0,-100.00,SSW,192,3.0,5.0,85,0.00,,,0.56,369.000000,,2013-05-20 15:33:00,
2013-05-20 11:42:00,72.0,67.0,-100.00,SSW,192,3.0,5.0,85,0.00,,,0.56,369.000000,,2013-05-20 15:42:00,
2013-05-20 11:53:00,72.0,67.0,-100.00,SSW,192,3.0,5.0,85,0.00,,,0.56,369.000000,,2013-05-20 15:53:00,
2013-05-20 12:03:00,72.0,67.0,-100.00,SSW,192,3.0,5.0,85,0.00,,,0.56,369.000000,,2013-05-20 16:03:00,
2013-05-20 12:33:00,73.0,67.0,-100.00,South,179,4.0,7.0,81,0.00,,,0.56,453.000000,,2013-05-20 16:33:00,
2013-05-20 12:42:00,73.0,67.0,-100.00,South,179,4.0,7.0,81,0.00,,,0.56,453.000000,,2013-05-20 16:42:00,
2013-05-20 12:53:00,73.0,67.0,-100.00,South,179,4.0,7.0,81,0.00,,,0.56,453.000000,,2013-05-20 16:53:00,
2013-05-20 13:02:00,73.0,67.0,-100.00,South,179,4.0,7.0,81,0.00,,,0.56,453.000000,,2013-05-20 17:02:00,
2013-05-20 13:33:00,74.0,66.0,-100.00,SW,221,4.0,9.0,76,0.00,,,0.56,671.000000,,2013-05-20 17:33:00,
2013-05-20 13:45:00,74.0,66.0,-100.00,SW,221,4.0,9.0,76,0.00,,,0.56,671.000000,,2013-05-20 17:45:00,
2013-05-20 13:53:00,74.0,66.0,-100.00,SW,221,4.0,9.0,76,0.00,,,0.56,671.000000,,2013-05-20 17:53:00,
2013-05-20 14:02:00,74.0,66.0,-100.00,SW,221,4.0,9.0,76,0.00,,,0.56,671.000000,,2013-05-20 18:02:00,
2013-05-20 14:04:00,77.0,69.0,-100.00,SSW,206,4.0,8.0,76,0.00,,,0.56,566.000000,,2013-05-20 18:04:00,
2013-05-20 14:33:00,77.0,69.0,-100.00,SSW,206,4.0,8.0,76,0.00,,,0.56,566.000000,,2013-05-20 18:33:00,
2013-05-20 14:42:00,77.0,69.0,-100.00,SSW,206,4.0,8.0,76,0.00,,,0.56,566.000000,,2013-05-20 18:42:00,
2013-05-20 14:55:00,77.0,69.0,-100.00,SSW,206,4.0,8.0,76,0.00,,,0.56,566.000000,,2013-05-20 18:55:00,
2013-05-20 15:33:00,81.0,69.0,-100.00,NW,322,4.0,8.0,66,0.00,,,0.56,906.000000,,2013-05-20 19:33:00,
2013-05-20 15:42:00,81.0,69.0,-100.00,NW,322,4.0,8.0,66,0.00,,,0.56,906.000000,,2013-05-20 19:42:00,
2013-05-20 15:53:00,81.0,69.0,-100.00,NW,322,4.0,8.0,66,0.00,,,0.56,906.000000,,2013-05-20 19:53:00,
2013-05-20 16:01:00,81.0,69.0,-100.00,NW,322,4.0,8.0,66,0.00,,,0.56,906.000000,,2013-05-20 20:01:00,
2013-05-20 16:32:00,81.0,63.0,-100.00,NNW,338,3.0,7.0,55,0.00,,,0.56,739.000000,,2013-05-20 20:32:00,
2013-05-20 16:42:00,81.0,63.0,-100.00,NNW,338,3.0,7.0,55,0.00,,,0.56,739.000000,,2013-05-20 20:42:00,
2013-05-20 16:52:00,81.0,63.0,-100.00,NNW,338,3.0,7.0,55,0.00,,,0.56,739.000000,,2013-05-20 20:52:00,
2013-05-20 17:01:00,81.0,63.0,-100.00,NNW,338,3.0,7.0,55,0.00,,,0.56,739.000000,,2013-05-20 21:01:00,
2013-05-20 17:33:00,82.0,66.0,-100.00,SE,137,4.0,7.0,58,0.00,,,0.55,591.000000,,2013-05-20 21:33:00,
2013-05-20 17:43:00,82.0,66.0,-100.00,SE,137,4.0,7.0,58,0.00,,,0.55,591.000000,,2013-05-20 21:43:00,
2013-05-20 17:53:00,82.0,66.0,-100.00,SE,137,4.0,7.0,58,0.00,,,0.55,591.000000,,2013-05-20 21:53:00,
2013-05-20 18:02:00,82.0,66.0,-100.00,SE,137,4.0,7.0,58,0.00,,,0.55,591.000000,,2013-05-20 22:02:00,
2013-05-20 18:33:00,80.0,68.0,-100.00,SSE,151,5.0,8.0,66,0.00,,,0.02,442.000000,,2013-05-20 22:33:00,
2013-05-20 18:42:00,80.0,68.0,-100.00,SSE,151,5.0,8.0,66,0.00,,,0.02,442.000000,,2013-05-20 22:42:00,
2013-05-20 18:53:00,80.0,68.0,-100.00,SSE,151,5.0,8.0,66,0.00,,,0.02,442.000000,,2013-05-20 22:53:00,
2013-05-20 19:03:00,80.0,68.0,-100.00,SSE,151,5.0,8.0,66,0.00,,,0.02,442.000000,,2013-05-20 23:03:00,
2013-05-20 19:22:00,77.0,68.0,-100.00,SSE,152,4.0,7.0,73,0.00,,,0.02,159.000000,,2013-05-20 23:22:00,
2013-05-20 19:32:00,77.0,68.0,-100.00,SSE,152,4.0,7.0,73,0.00,,,0.02,159.000000,,2013-05-20 23:32:00,
2013-05-20 19:42:00,77.0,68.0,-100.00,SSE,152,4.0,7.0,73,0.00,,,0.02,159.000000,,2013-05-20 23:42:00,
2013-05-20 19:53:00,77.0,68.0,-100.00,SSE,152,4.0,7.0,73,0.00,,,0.02,159.000000,,2013-05-20 23:53:00,
2013-05-20 20:01:00,77.0,68.0,-100.00,SSE,152,4.0,7.0,73,0.00,,,0.02,159.000000,,2013-05-21 00:01:00,
2013-05-20 20:22:00,75.0,68.0,-100.00,ESE,119,2.0,4.0,79,0.00,,,0.02,60.000000,,2013-05-21 00:22:00,
2013-05-20 20:32:00,75.0,68.0,-100.00,ESE,119,2.0,4.0,79,0.00,,,0.02,60.000000,,2013-05-21 00:32:00,
2013-05-20 20:42:00,75.0,68.0,-100.00,ESE,119,2.0,4.0,79,0.00,,,0.02,60.000000,,2013-05-21 00:42:00,
2013-05-20 20:52:00,75.0,68.0,-100.00,ESE,119,2.0,4.0,79,0.00,,,0.02,60.000000,,2013-05-21 00:52:00,
2013-05-20 21:01:00,75.0,68.0,-100.00,ESE,119,2.0,4.0,79,0.00,,,0.02,60.000000,,2013-05-21 01:01:00,
2013-05-20 21:22:00,70.0,68.0,-100.00,NW,324,1.0,2.0,92,0.00,,,0.02,8.000000,,2013-05-21 01:22:00,
2013-05-20 21:32:00,70.0,68.0,-100.00,NW,324,1.0,2.0,92,0.00,,,0.02,8.000000,,2013-05-21 01:32:00,
2013-05-20 21:42:00,70.0,68.0,-100.00,NW,324,1.0,2.0,92,0.00,,,0.02,8.000000,,2013-05-21 01:42:00,
2013-05-20 21:53:00,70.0,68.0,-100.00,NW,324,1.0,2.0,92,0.00,,,0.02,8.000000,,2013-05-21 01:53:00,
2013-05-20 22:02:00,70.0,68.0,-100.00,NW,324,1.0,2.0,92,0.00,,,0.02,8.000000,,2013-05-21 02:02:00,
2013-05-20 22:32:00,69.0,68.0,-100.00,NW,307,2.0,4.0,98,0.00,,,0.02,0.000000,,2013-05-21 02:32:00,
2013-05-20 22:42:00,69.0,68.0,-100.00,NW,307,2.0,4.0,98,0.00,,,0.02,0.000000,,2013-05-21 02:42:00,
2013-05-20 22:52:00,69.0,68.0,-100.00,NW,307,2.0,4.0,98,0.00,,,0.02,0.000000,,2013-05-21 02:52:00,
2013-05-20 23:02:00,69.0,68.0,-100.00,NW,307,2.0,4.0,98,0.00,,,0.02,0.000000,,2013-05-21 03:02:00,
2013-05-20 23:21:00,67.0,67.0,-100.00,West,262,2.0,3.0,99,0.00,,,0.02,0.000000,,2013-05-21 03:21:00,
2013-05-20 23:33:00,67.0,67.0,-100.00,West,262,2.0,3.0,99,0.00,,,0.02,0.000000,,2013-05-21 03:33:00,
2013-05-20 23:43:00,67.0,67.0,-100.00,West,262,2.0,3.0,99,0.00,,,0.02,0.000000,,2013-05-21 03:43:00,
2013-05-20 23:53:00,67.0,67.0,-100.00,West,262,2.0,3.0,99,0.00,,,0.02,0.000000,,2013-05-21 03:53:00,